Regional Weather Roundup
Issued by NWS

Home | Current Version | Previous Version | Graphics & Text | Print | Product List | Glossary On
Versions: 1 2 3 4 5 6 7 8 9 10 11 12 13 14 15 16 17 18 19 20 21 22 23 24 25 26 27 28 29 30 31 32 33 34 35 36 37 38 39 40 41 42 43 44 45 46 47 48 49 50
022
ASUS45 KCYS 281410
RWRWY

WYOMING REGIONAL WEATHER ROUNDUP
NATIONAL WEATHER SERVICE CHEYENNE WY
800 AM MDT FRI APR 28 2017

NOTE:  "FAIR" INDICATES FEW OR NO CLOUDS BELOW 12,000 FEET
WITH NO SIGNIFICANT WEATHER AND/OR OBSTRUCTIONS TO VISIBILITY.

WYZ001-281500-
YELLOWSTONE NATIONAL PARK

CITY           SKY/WX    TMP DP  RH WIND       PRES   REMARKS
LK YELLOWSTONE   N/A     24  20  84 VRB5      29.83R WCI  18
W YELLOWSTONE  NOT AVBL

$$
WYZ002>013-054>058-071-098>099-281500-
NORTHERN WYOMING

CITY           SKY/WX    TMP DP  RH WIND       PRES   REMARKS
JACKSON        CLOUDY    28  28 100 CALM      29.79R
CODY           LGT SNOW  33  31  92 N18G26    29.83R FOG     WCI  22
GREYBULL       CLOUDY    41  31  67 NW18      29.76R
WORLAND        CLOUDY    39  34  82 N12G23    29.76R WCI  32
SHERIDAN       CLOUDY    34  32  92 W10       29.88R WCI  26
BUFFALO        SNOW      33  29  85 NW20      29.84R VSB 1/2 WCI  21
GILLETTE       SNOW      32  32 100 NE13      29.82R WCI  22
HULETT         CLOUDY    34  32  93 E8G17     29.84R WCI  27
NEWCASTLE      NOT AVBL

$$
WYZ014>020-022>026-101>103-281500-
CENTRAL WYOMING

CITY           SKY/WX    TMP DP  RH WIND       PRES   REMARKS
BIG PINEY      CLOUDY    31  19  61 N10       29.72R WCI  22
PINEDALE       CLOUDY    30  23  74 NW14      29.71S WCI  20
DUBOIS         CLOUDY    32  19  59 W8        29.71R WCI  25
LANDER         LGT SNOW  32  31  96 NW12      29.73R FOG     WCI  23
RIVERTON       LGT SNOW  32  31  96 N14       29.73R VSB 1   WCI  22
CASPER         SNOW      31  30  96 N20       29.72R VSB 1/2 WCI  19
DOUGLAS        SNOW      31  30  96 NE12      29.72R VSB 1/2 WCI  22

$$
WYZ021-027>030-104>119-281500-
SOUTHERN WYOMING

CITY           SKY/WX    TMP DP  RH WIND       PRES   REMARKS
EVANSTON       LGT SNOW  24  19  81 SW10      29.80R WCI  14
ROCK SPRINGS   LGT SNOW  26  22  84 SW17      29.74R VSB 3/4 WCI  13
DIXON            N/A     31  21  67 SW7       29.77R WCI  24
RAWLINS        LGT SNOW  28  24  85 W15       29.69R FOG     WCI  16
SARATOGA       CLOUDY    30  21  69 SW13G22   29.71R WCI  20
LARAMIE        FAIR      33  20  58 SW16      29.65R WCI  23
CHEYENNE       FAIR      33  23  66 N5        29.66R WCI  29
TORRINGTON     SNOW      33  32  96 E14       29.68R VSB 1/2 WCI  23
PINE BLUFFS    CLOUDY    36  32  87 W7        29.66R WCI  30

$$




USA.gov is the U.S. government's official web portal to all federal, state and local government web resources and services.